GEFSNGP_850_meantemp_108.txt.gz
Temperature
10 11 10 10 10 10 10 10 10 10 10 13 13 13 14 15 15 15 15 15 15 15 14 14 13 13 12 12 11 10 10 9 9 8 8 7 7 6 6 5 5 5 4 4
10 10 10 10 10 10 10 11 10 10 10 12 13 14 13 14 15 15 16 16 16 16 15 14 14 13 12 11 11 10 9 9 8 8 7 7 6 6 5 5 4 4 4 3
9 10 10 9 10 10 10 9 10 11 12 12 12 11 12 14 15 16 17 17 16 16 16 15 14 13 12 11 10 10 9 8 8 7 7 6 6 5 5 4 4 4 3 3
8 9 9 11 11 11 11 10 10 10 11 12 12 14 15 15 15 16 16 16 16 16 15 14 14 12 11 10 10 9 8 8 7 7 6 6 5 5 4 4 4 3 3 2
7 8 8 9 10 10 10 10 10 11 11 11 12 12 12 15 15 16 16 16 15 15 14 14 13 12 11 10 9 8 8 7 7 6 6 5 5 5 4 3 3 3 2 2
6 8 8 10 11 10 11 11 11 10 11 10 9 10 11 15 15 15 15 15 14 14 14 13 12 11 10 9 8 8 7 7 6 6 5 5 4 4 3 3 2 2 2 1
6 7 8 9 10 10 11 11 12 12 11 10 9 12 14 14 14 14 14 14 13 13 12 12 11 10 9 8 8 7 7 6 6 5 5 4 4 3 3 2 2 2 1 1
6 7 8 9 8 10 11 13 14 13 13 12 13 13 13 13 13 13 13 12 12 12 11 10 10 9 8 8 7 6 6 5 5 5 4 4 3 2 2 2 1 1 1 0
8 9 9 10 11 13 14 14 14 15 15 14 14 13 13 13 13 12 12 11 11 10 10 9 8 8 7 7 6 6 5 5 4 4 3 3 2 2 2 1 1 0 -0 -0
7 7 8 10 12 13 14 15 15 15 15 14 14 14 13 12 12 11 11 10 10 9 9 8 7 7 6 6 5 5 5 4 4 3 3 2 2 1 1 1 0 -0 -1 -1
7 7 8 10 12 14 14 14 14 14 14 14 13 13 12 12 11 10 10 9 9 8 8 7 6 6 5 5 5 4 4 4 3 3 2 2 1 1 0 -0 -1 -1 -2 -2
8 8 8 10 14 14 13 13 14 13 13 13 12 12 12 11 10 10 9 8 8 7 7 6 6 5 5 4 4 4 3 3 2 2 1 1 1 0 -0 -1 -1 -2 -3 -3
11 12 12 13 13 13 13 13 13 12 12 12 11 11 11 10 9 9 8 7 7 6 6 5 5 4 4 4 3 3 2 2 2 1 1 0 -0 -1 -1 -1 -2 -2 -3 -4
11 11 10 11 12 12 12 12 12 11 11 11 10 10 10 9 8 8 7 7 6 5 5 4 4 4 3 3 2 2 2 1 1 0 -0 -1 -1 -1 -2 -2 -3 -3 -3 -4
10 11 11 11 11 11 11 11 10 10 10 9 9 9 9 8 7 7 6 5 5 4 4 4 3 3 2 2 2 1 1 1 0 -0 -1 -1 -2 -2 -3 -3 -4 -4 -4 -4
9 9 10 10 10 10 10 10 10 9 9 9 8 8 7 7 6 6 5 5 4 4 3 3 2 2 2 1 1 1 0 -0 -1 -1 -1 -2 -3 -3 -4 -4 -5 -5 -5 -6
8 7 8 8 9 9 9 9 9 9 8 8 7 7 6 5 5 5 4 4 3 3 3 2 2 1 1 1 0 0 -0 -1 -1 -2 -2 -3 -4 -4 -5 -5 -6 -6 -6 -7
9 9 9 9 9 9 8 8 8 7 7 6 6 5 5 5 4 4 3 3 2 2 2 1 1 1 0 0 -0 -1 -1 -2 -2 -3 -3 -4 -5 -5 -6 -6 -7 -7 -7 -7
7 8 8 8 8 8 7 7 6 6 6 5 5 4 4 4 3 3 2 2 2 1 1 0 0 -0 -0 -1 -1 -2 -2 -3 -3 -4 -4 -5 -6 -6 -7 -7 -7 -8 -8 -8
6 6 6 6 6 6 6 5 5 5 4 4 4 3 3 3 2 2 2 1 1 0 0 -0 -1 -1 -1 -2 -2 -3 -3 -4 -4 -5 -5 -6 -7 -7 -8 -8 -8 -8 -9 -9
5 5 5 5 4 4 4 4 4 4 3 3 3 3 2 2 1 1 1 0 -0 -1 -1 -1 -1 -2 -2 -3 -3 -4 -4 -5 -5 -6 -7 -7 -8 -8 -8 -9 -9 -9 -10 -10
3 3 3 3 3 3 3 3 3 2 2 2 2 1 1 1 0 -0 -0 -1 -1 -1 -2 -2 -2 -3 -3 -4 -4 -5 -5 -6 -6 -7 -7 -8 -8 -9 -9 -9 -10 -10 -10 -10
2 2 2 2 2 2 1 1 1 1 1 1 1 0 0 -0 -1 -1 -1 -2 -2 -2 -3 -3 -3 -4 -4 -5 -5 -6 -6 -7 -7 -8 -8 -9 -9 -9 -10 -10 -10 -10 -11 -11
1 1 1 1 1 1 0 0 0 -0 -0 -0 -1 -1 -1 -1 -2 -2 -2 -3 -3 -3 -3 -4 -4 -5 -6 -6 -6 -7 -7 -8 -8 -9 -9 -9 -10 -10 -10 -11 -11 -11 -11 -11
-0 -1 -0 -0 -0 -1 -1 -1 -1 -1 -1 -1 -2 -2 -2 -2 -3 -3 -3 -3 -4 -4 -4 -5 -5 -6 -6 -7 -7 -8 -8 -9 -9 -10 -10 -10 -10 -11 -11 -11 -11 -11 -12 -12
-2 -2 -1 -1 -2 -2 -2 -2 -2 -2 -2 -2 -2 -3 -3 -3 -4 -4 -4 -4 -5 -5 -6 -6 -6 -7 -7 -8 -8 -9 -9 -9 -10 -10 -10 -10 -11 -11 -11 -11 -12 -12 -12 -12
-2 -2 -2 -3 -3 -3 -3 -3 -3 -3 -3 -3 -3 -4 -4 -4 -4 -5 -5 -5 -6 -6 -7 -7 -7 -8 -8 -9 -9 -9 -10 -10 -10 -10 -11 -11 -11 -11 -12 -12 -12 -12 -12 -12

GEFSNGP_850_meantemp_114.txt.gz
Temperature
15 15 15 14 14 14 15 16 16 17 17 18 19 19 19 18 17 15 14 15 15 15 14 14 14 13 13 12 12 12 11 11 11 10 10 9 9 9 8 8 7 7 6 6
13 13 14 14 14 15 15 15 16 16 17 18 19 18 18 17 17 15 15 15 16 16 15 15 14 14 13 13 12 12 11 11 10 10 9 9 9 8 8 7 7 6 6 5
12 13 12 12 14 14 15 15 16 16 17 18 17 17 17 17 16 16 15 16 16 16 16 16 15 15 14 13 12 12 11 10 10 9 9 9 8 8 7 7 6 6 5 5
12 11 10 14 16 16 15 15 16 16 17 17 17 17 16 16 16 16 15 15 16 16 16 16 15 14 14 13 12 11 11 10 9 9 9 8 8 7 7 6 6 5 5 4
10 11 12 13 13 14 14 15 16 16 16 16 15 14 15 15 15 15 15 15 16 16 16 15 15 14 13 12 12 11 10 10 9 9 8 8 7 7 6 6 5 5 4 4
9 10 11 14 14 14 14 14 16 16 15 15 14 14 16 16 15 15 15 15 15 15 15 15 14 14 13 12 11 11 10 9 9 8 8 7 7 6 6 5 5 4 4 3
9 11 13 15 13 13 13 15 16 15 15 14 14 15 15 15 15 15 15 15 15 14 14 14 14 13 12 12 11 10 9 8 8 7 7 6 6 5 5 5 4 4 3 3
10 10 12 12 11 14 16 15 14 14 14 14 14 14 14 14 14 14 14 14 14 14 13 13 12 12 11 11 10 9 8 8 7 6 6 5 5 5 4 4 3 3 2 2
11 13 14 12 13 14 14 14 14 14 14 14 13 13 13 13 13 13 13 13 13 13 12 12 11 11 10 10 9 8 7 7 6 6 5 5 5 4 4 3 3 2 2 1
11 12 12 11 12 13 13 14 15 15 15 14 14 14 13 13 13 13 13 12 12 12 11 11 10 10 9 9 8 7 7 6 6 5 5 4 4 4 3 3 2 2 1 1
11 11 11 11 11 12 13 13 14 14 14 14 14 14 13 13 13 12 12 11 11 11 11 10 9 9 8 8 7 7 6 6 5 5 4 4 3 3 3 2 2 1 1 -0
11 11 11 13 12 13 13 13 13 13 13 13 14 14 13 13 12 12 11 11 10 10 9 9 8 8 7 7 6 6 6 5 4 4 3 3 3 2 2 1 1 0 -0 -1
11 11 11 12 12 12 12 13 13 13 13 13 13 13 13 12 12 11 11 10 10 9 9 8 7 7 6 6 6 5 5 4 4 3 3 2 2 1 1 0 -0 -0 -1 -1
9 10 9 10 11 12 12 12 12 12 12 12 12 12 12 11 11 10 10 9 9 8 7 7 6 6 6 5 5 4 4 3 3 2 2 1 1 0 -0 -1 -1 -1 -2 -2
8 9 10 10 10 11 11 11 11 11 11 11 11 11 11 10 10 9 9 8 8 7 6 6 6 5 5 4 4 3 3 3 2 2 1 1 -0 -1 -1 -2 -2 -2 -3 -3
8 8 9 9 9 10 10 10 10 10 10 10 10 10 9 9 9 8 8 7 7 6 6 5 5 4 4 3 3 2 2 2 1 1 0 -0 -1 -2 -2 -2 -3 -3 -4 -4
7 6 7 7 8 8 9 9 9 9 9 9 9 9 8 8 7 7 6 6 6 5 5 4 4 3 3 3 2 2 1 1 0 -0 -1 -1 -2 -2 -3 -3 -4 -4 -4 -5
8 9 9 9 9 8 8 8 8 8 8 8 8 7 7 7 7 6 5 5 4 4 4 3 3 3 2 2 1 1 0 -0 -1 -1 -2 -2 -3 -3 -4 -4 -5 -5 -5 -6
7 8 8 8 8 8 8 7 7 7 7 7 6 6 6 6 5 5 4 4 4 3 3 2 2 1 1 1 0 -0 -1 -1 -2 -2 -3 -3 -4 -4 -5 -5 -6 -6 -7 -7
6 6 7 7 7 7 7 6 6 6 5 5 5 5 4 4 4 4 3 3 3 2 2 1 1 0 0 -0 -1 -1 -2 -2 -3 -3 -4 -4 -5 -5 -6 -6 -7 -7 -7 -8
4 5 5 5 5 5 5 5 5 4 4 4 4 4 4 3 3 2 2 2 1 1 1 0 -0 -0 -1 -1 -2 -2 -3 -3 -4 -4 -5 -5 -6 -6 -7 -7 -8 -8 -8 -8
3 3 3 3 4 3 3 3 3 3 3 3 3 3 2 2 2 1 1 1 0 -0 -0 -1 -1 -1 -2 -3 -3 -3 -4 -4 -5 -5 -6 -6 -7 -7 -8 -8 -8 -9 -9 -9
1 1 1 2 2 2 1 1 1 2 1 1 1 1 1 1 0 0 -0 -0 -1 -1 -1 -2 -2 -2 -3 -4 -4 -4 -5 -5 -6 -6 -7 -7 -8 -8 -8 -9 -9 -9 -10 -10
-1 -1 -0 0 0 0 -0 -0 -0 -0 0 0 -0 -0 -0 -1 -1 -1 -1 -2 -2 -2 -2 -3 -3 -3 -4 -4 -5 -5 -5 -6 -6 -7 -8 -8 -8 -9 -9 -9 -10 -10 -10 -10
-2 -2 -2 -1 -1 -1 -2 -2 -1 -1 -1 -1 -2 -2 -2 -2 -2 -2 -3 -3 -3 -3 -3 -4 -4 -4 -5 -5 -5 -6 -6 -7 -7 -8 -8 -9 -9 -9 -9 -10 -10 -10 -11 -11
-3 -3 -3 -3 -3 -3 -3 -2 -2 -2 -2 -2 -3 -3 -3 -3 -3 -3 -4 -4 -4 -4 -5 -5 -5 -5 -6 -6 -6 -7 -7 -8 -8 -8 -9 -9 -9 -10 -10 -10 -11 -11 -11 -11
-4 -4 -4 -4 -4 -4 -3 -3 -3 -3 -3 -3 -4 -4 -4 -4 -4 -4 -5 -5 -5 -5 -5 -6 -6 -6 -7 -7 -7 -8 -8 -8 -9 -9 -9 -10 -10 -10 -10 -11 -11 -11 -11 -11

GEFSNGP_850_meantemp_120.txt.gz
Temperature
12 13 14 13 13 14 14 14 14 14 15 17 17 17 18 19 19 18 17 16 16 15 14 13 12 12 11 11 11 11 11 11 10 10 10 10 10 10 10 9 9 9 9 9
11 13 14 13 14 14 14 14 15 15 15 17 18 18 18 19 19 18 17 17 16 15 15 14 13 12 12 12 11 11 11 11 10 10 10 10 9 9 9 9 9 9 9 8
9 11 12 11 13 13 14 14 14 14 15 17 17 17 17 19 19 18 18 17 17 16 15 14 14 13 12 12 12 11 11 11 10 10 9 9 9 9 9 9 8 8 8 8
8 10 9 11 14 14 14 14 15 15 16 16 17 18 19 19 18 18 18 17 17 16 16 15 14 13 12 12 11 11 11 10 10 9 9 9 9 8 8 8 8 8 8 7
7 8 9 12 13 14 14 14 15 15 15 16 17 17 17 18 18 18 18 17 17 16 16 15 14 13 13 12 11 11 11 10 10 10 9 9 9 8 8 8 8 7 7 7
7 7 8 12 14 14 14 13 15 15 15 15 15 14 14 17 17 17 17 17 16 16 16 15 14 14 13 12 11 11 11 10 10 9 9 9 9 8 8 7 7 7 6 6
6 7 9 12 13 13 12 12 14 15 15 15 14 15 16 17 17 16 16 16 16 15 15 14 14 13 12 12 11 11 10 9 9 9 8 8 8 7 7 7 6 6 6 5
7 7 8 12 12 12 12 14 15 15 16 15 15 15 16 16 16 15 15 15 15 14 14 13 13 13 12 11 11 10 9 9 8 8 7 7 7 7 6 6 5 5 5 4
7 9 11 12 12 13 14 14 14 15 15 15 15 15 15 15 15 14 14 14 14 13 13 12 12 12 12 11 10 9 9 8 8 7 7 6 6 6 5 5 5 4 4 4
8 9 10 11 12 13 13 13 13 14 14 14 14 14 14 14 14 14 13 13 13 12 12 12 11 11 11 10 10 9 8 8 7 6 6 5 5 5 5 4 4 4 3 3
8 9 10 11 11 12 12 12 13 13 13 14 14 13 13 13 13 13 12 12 12 12 12 11 11 10 10 9 9 8 8 7 6 6 5 5 4 4 4 4 4 4 3 3
8 9 9 10 11 12 12 11 12 12 12 13 13 13 13 12 12 12 12 12 11 11 11 10 10 9 9 8 8 8 7 6 6 5 5 4 4 3 3 3 3 2 2 2
9 10 11 11 11 11 11 11 11 12 12 12 12 12 12 12 12 12 11 11 11 10 10 10 9 9 8 8 7 7 7 6 6 5 5 4 4 3 3 2 2 1 1 1
9 9 10 11 11 11 11 11 10 11 11 11 11 11 11 11 11 11 11 10 10 10 9 9 9 8 7 7 7 6 6 5 5 5 4 4 3 2 2 2 1 1 0 0
8 9 10 10 10 10 10 10 10 10 10 10 10 10 11 11 10 10 10 9 9 9 8 8 8 7 7 6 6 6 5 5 4 4 3 3 2 2 1 1 0 -0 -0 -1
8 8 9 9 9 9 9 9 9 9 9 9 9 9 10 10 9 9 9 8 8 8 8 7 7 7 6 6 5 5 4 4 4 3 3 2 1 1 0 -0 -1 -1 -1 -2
7 7 7 8 8 8 9 9 9 9 8 8 8 8 8 8 8 8 7 7 7 7 7 7 6 6 5 5 5 4 4 3 3 2 2 1 1 0 -0 -1 -1 -2 -2 -3
7 7 8 8 8 8 7 8 8 8 8 8 7 7 7 7 7 7 6 6 6 6 5 5 5 5 4 4 4 3 3 2 2 1 1 0 -0 -1 -1 -2 -2 -3 -3 -3
6 6 7 7 7 7 7 7 7 7 7 7 7 7 6 6 6 5 5 5 5 5 4 4 4 4 4 3 3 2 2 2 1 1 0 -1 -1 -2 -2 -3 -3 -3 -4 -4
5 5 6 6 6 6 6 6 6 6 6 6 6 5 5 4 4 4 4 4 4 4 3 3 3 3 3 2 2 1 1 1 0 -0 -1 -2 -2 -3 -3 -3 -4 -4 -5 -5
4 4 4 5 5 5 5 5 5 5 4 4 4 4 3 3 3 3 3 3 3 2 2 2 2 2 2 1 1 0 0 -0 -1 -1 -2 -3 -3 -4 -4 -4 -5 -5 -6 -6
2 3 3 3 3 3 3 3 3 3 3 3 3 2 2 2 2 2 2 2 2 1 1 1 1 1 1 0 -0 -1 -1 -1 -2 -2 -3 -3 -4 -4 -5 -5 -6 -6 -6 -7
0 1 1 1 1 1 1 1 1 1 1 1 1 1 1 1 1 1 1 1 1 0 0 0 0 -0 -1 -1 -1 -2 -2 -3 -3 -3 -4 -4 -5 -5 -6 -6 -6 -7 -7 -8
-2 -2 -1 -1 -1 -1 -1 -1 -0 -0 -0 -0 -0 0 0 0 -0 -0 -0 -0 -1 -1 -1 -1 -1 -1 -2 -2 -2 -3 -3 -3 -4 -4 -5 -5 -5 -6 -6 -7 -7 -8 -8 -8
-4 -3 -3 -3 -2 -3 -2 -2 -2 -1 -1 -2 -2 -1 -1 -1 -1 -1 -1 -2 -2 -2 -2 -2 -3 -3 -3 -3 -3 -4 -4 -4 -5 -5 -6 -6 -6 -7 -7 -8 -8 -8 -8 -9
-5 -5 -4 -4 -4 -4 -3 -3 -3 -3 -2 -2 -3 -3 -2 -2 -2 -2 -3 -3 -3 -3 -3 -3 -4 -4 -4 -4 -4 -5 -5 -5 -6 -6 -6 -7 -7 -7 -8 -8 -8 -9 -9 -9
-5 -5 -5 -5 -5 -4 -4 -4 -4 -4 -3 -3 -3 -3 -3 -3 -3 -3 -3 -4 -4 -4 -4 -4 -5 -5 -5 -5 -5 -6 -6 -6 -6 -7 -7 -8 -8 -8 -9 -9 -9 -9 -9 -9

GEFSNGP_850_meantemp_126.txt.gz
Temperature
6 7 8 8 9 9 9 10 10 11 11 12 13 13 13 15 15 16 16 17 17 18 17 17 16 16 15 15 14 13 12 12 11 11 11 10 10 10 9 9 9 9 9 9
6 7 8 8 9 10 10 11 10 11 11 12 13 13 13 14 14 15 16 17 17 17 17 17 16 16 15 15 14 12 12 11 11 10 10 10 9 9 9 9 9 9 9 9
5 7 7 7 9 10 10 11 11 11 12 12 12 12 13 14 15 15 16 17 17 17 17 17 17 16 15 15 13 12 11 11 10 10 10 9 9 9 9 9 9 9 8 8
4 5 5 8 9 10 10 10 11 11 11 12 12 13 15 16 16 16 17 17 17 17 17 17 17 16 15 14 13 12 11 10 10 10 9 9 9 9 9 9 8 8 8 8
3 4 5 7 8 9 9 9 10 10 11 11 12 13 14 15 16 16 17 17 17 17 17 17 17 16 15 14 13 12 11 11 10 10 9 9 9 8 8 8 8 8 8 7
3 4 6 8 8 9 9 9 9 9 10 10 10 10 12 14 14 15 16 16 16 17 16 16 16 16 15 14 13 13 12 11 11 10 9 9 8 8 8 8 8 7 7 7
3 4 5 7 8 9 8 9 9 9 9 9 9 11 13 13 14 14 15 15 16 16 16 16 16 15 15 14 14 13 12 11 10 9 9 8 8 8 7 7 7 7 7 6
3 4 5 7 7 8 8 9 10 10 10 10 10 11 12 12 13 14 14 14 15 15 15 15 15 15 14 14 14 13 12 11 10 9 8 8 7 7 7 7 6 6 6 6
3 5 6 7 7 8 9 9 10 11 11 11 10 11 11 12 12 13 13 14 14 15 15 15 14 14 14 14 13 12 11 10 9 9 8 7 7 7 6 6 6 6 5 5
3 4 5 6 7 8 8 9 10 10 11 11 11 11 11 11 12 12 12 13 14 14 14 14 14 13 13 13 12 11 10 10 9 8 7 7 6 6 6 6 5 5 4 4
2 4 5 6 7 8 8 8 9 10 10 11 11 11 11 11 11 12 12 12 13 13 13 13 13 12 12 12 11 10 10 9 8 7 7 6 6 5 5 5 5 4 4 4
3 4 4 5 7 7 7 8 8 9 10 10 10 11 11 11 11 11 11 12 12 12 12 12 12 11 11 10 10 10 9 8 8 7 6 6 5 5 4 4 4 3 3 3
4 5 5 5 6 7 7 8 8 9 10 10 10 10 10 10 10 10 10 11 11 12 11 11 11 11 10 9 9 9 8 8 7 6 6 5 5 4 4 3 3 2 2 2
4 4 4 5 5 6 7 8 8 8 9 9 10 10 10 10 10 10 10 10 10 10 10 10 10 10 9 9 8 8 7 7 6 6 5 5 4 4 3 3 2 2 1 1
4 4 4 5 5 6 7 7 7 8 8 9 9 9 9 9 9 9 9 9 9 9 9 9 9 8 8 8 7 7 7 6 6 5 5 4 4 3 3 2 2 1 1 0
3 4 4 4 5 6 6 7 7 7 8 8 8 8 8 8 8 8 8 8 8 8 8 8 8 8 7 7 6 6 6 5 5 5 4 3 3 2 2 1 1 1 0 0
2 3 3 4 4 5 6 6 7 7 7 8 8 8 8 7 7 7 7 7 7 7 7 7 7 6 6 6 6 5 5 5 4 4 3 3 2 2 2 1 1 0 -0 -1
2 3 3 4 4 4 5 5 6 6 7 7 7 7 7 7 7 7 7 7 6 6 6 6 5 5 5 5 5 5 4 4 4 3 3 2 2 1 1 0 -0 -1 -1 -2
2 2 3 3 4 4 4 5 5 6 6 6 6 6 6 6 6 6 6 6 6 5 5 4 4 5 4 4 4 4 4 3 3 2 2 1 1 0 -0 -0 -1 -1 -2 -2
2 2 3 3 3 4 4 4 4 5 5 5 5 5 5 5 5 5 5 5 4 4 4 4 3 3 3 3 3 3 2 2 2 1 1 1 0 -0 -1 -1 -2 -2 -3 -3
1 2 2 3 3 3 3 3 4 4 4 4 4 4 4 4 4 4 4 3 3 2 2 2 2 2 2 2 2 2 1 1 1 0 -0 -0 -1 -1 -2 -2 -3 -3 -3 -4
0 1 1 1 2 2 2 2 3 3 3 3 3 3 3 2 2 2 2 2 1 1 2 2 1 1 1 1 1 1 0 0 -0 -0 -1 -1 -2 -2 -2 -3 -3 -4 -4 -4
-1 -0 0 0 1 0 0 1 1 2 2 2 2 2 2 1 1 1 0 0 0 0 1 1 0 0 0 -0 -0 -1 -1 -1 -1 -1 -2 -2 -2 -3 -3 -4 -4 -4 -5 -5
-2 -1 -1 -1 -1 -1 -1 -1 -1 -0 -0 -0 -0 -0 0 -0 -1 -1 -0 -1 -1 -1 -0 -1 -1 -1 -1 -1 -1 -2 -2 -2 -2 -2 -3 -3 -3 -4 -4 -4 -5 -5 -5 -6
-3 -3 -3 -3 -3 -3 -3 -2 -2 -2 -2 -2 -2 -2 -2 -1 -1 -2 -2 -2 -2 -2 -2 -2 -2 -2 -2 -2 -2 -3 -3 -3 -3 -3 -4 -4 -4 -4 -5 -5 -5 -5 -6 -6
-5 -5 -5 -4 -4 -4 -4 -3 -3 -3 -3 -3 -3 -3 -3 -3 -3 -3 -3 -3 -3 -3 -3 -3 -3 -3 -3 -3 -3 -4 -4 -4 -4 -4 -5 -5 -5 -5 -5 -6 -6 -6 -6 -6
-6 -6 -6 -6 -6 -5 -5 -5 -5 -5 -4 -4 -4 -4 -4 -4 -4 -4 -4 -3 -4 -4 -4 -4 -4 -4 -4 -4 -4 -4 -5 -5 -5 -5 -5 -5 -6 -6 -6 -6 -6 -6 -7 -7

GEFSNGP_850_meantemp_132.txt.gz
Temperature
3 4 4 5 6 6 6 7 7 8 8 10 10 10 11 12 12 13 14 15 16 16 17 17 17 17 17 17 16 15 15 14 13 13 12 12 11 11 10 10 10 10 10 9
3 4 5 5 6 7 7 7 7 8 8 9 10 10 10 11 12 12 13 14 15 16 16 17 17 17 17 16 16 15 15 14 13 12 12 11 10 10 10 10 10 9 9 9
2 4 4 4 6 7 7 8 8 8 9 8 9 9 9 11 12 12 13 14 15 15 16 16 17 17 16 16 15 15 14 13 13 12 11 11 10 10 10 10 9 9 9 9
2 3 3 5 6 7 7 7 8 8 8 8 9 10 11 12 12 13 13 13 14 15 15 16 16 16 16 16 15 15 14 13 12 11 11 10 10 9 9 9 9 9 9 8
1 2 3 4 5 6 6 6 7 7 7 8 9 9 10 12 12 12 13 13 14 14 15 15 16 16 16 15 15 14 14 13 12 11 11 10 9 9 9 9 9 9 8 8
1 2 3 5 5 6 6 6 6 6 6 6 7 7 9 11 11 12 12 13 13 14 14 15 15 15 15 15 15 14 14 13 12 11 10 10 9 9 9 8 8 8 8 8
0 1 3 4 4 6 5 5 6 6 6 6 6 8 9 10 11 11 12 12 13 13 13 14 15 15 15 15 15 14 13 12 12 11 10 9 9 9 8 8 8 8 7 7
0 1 2 3 4 4 4 5 5 5 6 6 7 8 8 9 10 11 11 12 12 12 13 13 14 14 14 15 14 14 13 12 11 11 10 9 8 8 8 7 7 7 7 7
0 2 3 3 4 5 5 5 5 5 6 6 6 7 7 8 9 10 10 11 11 12 12 13 13 13 14 14 14 13 13 12 11 10 9 9 8 8 7 7 7 7 7 6
-0 1 2 3 4 4 4 5 5 5 6 6 6 6 6 7 8 9 10 10 11 11 11 12 12 13 13 13 13 12 12 11 10 10 9 8 8 7 7 7 6 6 6 6
-1 1 2 3 4 4 4 4 5 5 6 6 6 6 6 7 8 8 9 10 10 10 11 11 12 12 12 12 12 12 11 10 10 9 8 8 7 7 7 7 6 6 6 5
0 1 1 2 3 4 4 4 4 5 5 6 6 6 6 7 7 8 9 9 10 10 10 11 11 11 11 11 11 11 10 10 9 9 8 7 7 6 6 6 5 5 5 5
1 1 1 2 2 3 3 4 4 4 5 5 6 6 6 7 7 8 8 9 9 10 10 10 10 10 10 10 10 10 10 10 9 8 8 7 6 6 5 5 4 4 4 4
0 0 0 1 2 2 3 3 4 4 5 5 6 6 6 7 7 7 8 8 9 9 9 9 9 9 9 9 9 9 9 9 9 8 7 7 6 6 5 5 4 4 4 3
-0 -0 0 1 1 2 2 3 3 4 4 5 5 6 6 6 7 7 7 8 8 8 8 8 8 9 9 9 8 8 8 8 7 7 6 6 5 5 4 4 4 3 3 3
-1 -1 -0 0 1 1 1 2 2 3 4 4 5 5 6 6 6 7 7 7 7 7 7 8 8 8 8 8 8 7 7 7 7 6 6 5 5 4 4 3 3 3 2 2
-2 -2 -1 -1 -0 0 1 1 2 3 3 4 4 5 5 5 6 6 6 6 6 7 7 7 7 7 7 7 7 7 6 6 6 5 5 5 4 4 3 3 3 2 2 1
-3 -2 -2 -1 -1 -0 0 1 2 2 3 3 4 4 4 5 5 5 5 5 6 6 6 6 6 6 6 6 6 6 6 5 5 4 4 4 3 3 3 2 2 1 1 0
-3 -3 -2 -2 -1 -0 0 1 2 2 3 3 3 4 4 4 4 5 5 5 5 5 5 5 5 5 5 5 5 5 5 4 4 4 3 3 3 2 2 2 1 1 0 0
-3 -3 -2 -2 -1 -1 0 1 2 2 2 2 3 3 3 3 3 4 4 4 4 5 5 4 4 4 4 4 4 4 4 3 3 3 2 2 2 2 1 1 1 0 -0 -1
-3 -3 -2 -2 -1 -1 0 1 1 2 2 2 2 2 2 2 3 3 4 3 3 3 3 3 3 3 3 3 3 3 3 2 2 2 2 2 1 1 1 0 -0 -0 -1 -1
-4 -3 -3 -2 -2 -1 -0 0 1 1 1 1 2 2 2 2 2 2 2 2 2 2 2 2 2 2 2 2 2 2 2 2 2 2 1 1 1 0 -0 -0 -1 -1 -2 -2
-4 -4 -3 -3 -2 -2 -1 -1 -0 0 0 0 1 1 1 1 1 2 1 1 1 1 1 1 1 1 1 1 1 1 1 1 1 1 0 0 -0 -1 -1 -1 -2 -2 -2 -3
-5 -4 -4 -3 -3 -3 -2 -2 -1 -1 -1 -1 -0 -0 0 0 -0 0 0 -0 -0 0 0 0 0 0 1 1 1 0 0 0 -0 -0 -1 -1 -1 -2 -2 -2 -3 -3 -3 -4
-6 -5 -5 -4 -4 -4 -3 -3 -3 -2 -2 -2 -2 -2 -1 -1 -1 -1 -1 -1 -1 -1 -1 -1 -1 -0 -0 -0 -0 -1 -1 -1 -1 -1 -2 -2 -2 -3 -3 -3 -3 -4 -4 -4
-6 -6 -6 -5 -5 -5 -4 -4 -4 -4 -3 -3 -3 -3 -3 -2 -2 -2 -2 -2 -2 -2 -2 -2 -2 -1 -1 -1 -1 -2 -2 -2 -2 -2 -3 -3 -3 -3 -4 -4 -4 -4 -4 -5
-7 -7 -7 -7 -6 -6 -6 -5 -5 -5 -5 -4 -4 -4 -4 -3 -3 -3 -3 -3 -3 -3 -2 -3 -3 -3 -2 -2 -3 -3 -3 -3 -3 -3 -4 -4 -4 -4 -4 -5 -5 -5 -5 -5

GEFSNGP_850_meantemp_138.txt.gz
Temperature
4 5 4 4 5 6 6 7 9 11 12 13 13 13 13 13 12 12 11 11 12 12 13 13 14 15 15 16 16 16 15 15 15 14 13 13 12 12 11 11 10 10 10 10
4 5 5 5 6 6 6 7 9 10 11 12 12 12 12 12 11 11 11 11 11 12 12 13 14 14 15 15 15 15 15 15 14 14 13 12 12 11 11 10 10 10 10 10
3 5 5 5 6 6 7 7 9 9 10 11 11 11 11 11 11 11 11 11 11 12 12 13 13 14 15 15 15 15 15 15 14 14 13 12 12 11 11 10 10 10 10 9
3 3 3 6 7 7 7 7 7 8 8 9 10 10 10 10 10 10 10 11 11 11 12 13 13 13 14 14 15 14 14 14 14 13 13 12 11 11 11 10 10 9 9 9
2 3 4 6 6 6 6 6 6 7 8 8 8 10 10 9 9 9 10 10 11 11 12 12 13 13 14 14 14 14 14 14 13 13 12 12 11 11 10 10 9 9 9 9
2 2 4 5 5 5 6 5 6 6 7 7 8 9 10 9 8 9 9 10 10 11 12 12 12 13 13 13 14 14 14 13 13 12 12 12 11 11 10 9 9 9 9 9
1 2 4 4 4 5 5 5 5 5 6 6 7 7 8 8 8 8 8 9 10 11 11 12 12 12 13 13 13 13 13 13 12 12 12 11 11 10 9 9 9 8 8 8
1 2 3 4 4 4 4 4 4 4 4 5 5 6 6 7 7 7 8 9 9 10 11 11 12 12 12 13 13 13 13 12 12 11 11 11 10 10 9 9 8 8 8 8
2 3 4 4 3 3 3 3 3 4 4 4 4 5 5 6 6 7 7 8 9 9 10 11 11 11 12 12 12 12 12 12 11 11 10 10 10 9 9 8 8 8 8 7
2 3 3 3 3 3 3 3 3 3 3 3 3 4 4 5 5 6 7 7 8 9 9 10 10 11 11 12 12 12 11 11 11 10 10 9 9 9 8 8 8 8 7 7
1 2 3 3 2 2 2 2 2 2 2 2 3 3 4 4 5 5 6 7 7 8 8 9 10 10 11 11 11 11 11 10 10 9 9 9 8 8 8 8 8 7 7 7
1 2 1 2 1 1 1 1 1 1 2 2 2 2 3 3 4 5 5 6 7 7 8 9 9 9 10 10 10 10 10 9 9 9 8 8 7 7 7 7 7 6 6 6
0 0 0 0 0 0 0 0 1 1 1 1 1 2 2 3 4 4 5 6 6 7 7 8 8 9 9 9 9 9 9 9 8 8 8 7 7 7 6 6 6 5 5 5
-1 -1 -1 -0 -1 -1 -1 -0 0 0 0 1 1 1 2 2 3 4 4 5 6 6 7 7 8 8 8 8 8 8 8 8 8 8 7 7 7 6 6 6 5 5 4 4
-1 -2 -2 -1 -1 -1 -1 -1 -0 -0 0 0 1 1 1 2 2 3 4 4 5 6 6 7 7 7 7 7 7 8 8 7 7 7 7 7 6 6 5 5 5 4 4 4
-2 -2 -2 -2 -2 -2 -1 -1 -1 -1 -0 -0 0 1 1 1 2 3 3 4 5 5 6 6 6 7 7 7 7 7 7 7 7 6 6 6 5 5 5 4 4 4 3 3
-3 -3 -3 -2 -2 -2 -2 -2 -2 -1 -1 -1 -0 0 0 1 1 2 3 3 4 5 5 5 6 6 6 6 6 6 6 6 6 6 5 5 5 4 4 4 4 3 3 3
-4 -4 -4 -4 -3 -3 -3 -2 -2 -2 -1 -1 -0 -0 -0 1 1 2 3 3 4 4 4 5 5 5 5 5 5 5 5 5 5 5 4 4 4 4 3 3 3 3 2 2
-5 -5 -5 -4 -4 -4 -4 -3 -3 -2 -1 -1 -1 -0 0 1 1 2 2 3 3 3 4 4 4 5 5 5 5 5 5 4 4 4 4 3 3 3 3 2 2 2 2 1
-6 -5 -5 -5 -5 -4 -4 -3 -3 -2 -2 -2 -1 -1 -0 0 1 1 2 2 3 3 3 4 4 4 4 4 4 4 4 4 3 3 3 3 3 2 2 2 2 1 1 1
-6 -6 -6 -6 -5 -5 -4 -4 -3 -2 -2 -2 -2 -1 -0 0 1 1 1 2 2 2 3 3 3 4 4 3 3 3 3 3 3 3 2 2 2 2 2 1 1 1 1 0
-7 -7 -6 -6 -5 -5 -4 -4 -3 -3 -2 -2 -2 -1 -1 -0 -0 0 1 1 2 2 2 2 3 3 3 3 3 3 3 2 2 2 2 2 1 1 1 1 1 0 -0 -0
-7 -7 -6 -6 -6 -5 -4 -4 -4 -3 -3 -2 -2 -1 -1 -1 -0 0 0 1 1 1 1 2 2 2 2 2 2 2 2 2 2 1 1 1 1 1 0 0 -0 -0 -1 -1
-7 -7 -6 -6 -6 -5 -5 -4 -4 -4 -3 -3 -2 -2 -1 -1 -1 -0 0 0 0 0 1 1 1 1 1 1 1 1 1 1 1 1 0 0 -0 -0 -0 -0 -1 -1 -1 -2
-8 -7 -7 -7 -6 -6 -6 -5 -5 -4 -4 -4 -3 -3 -2 -2 -1 -1 -1 -1 -1 -0 -0 -1 -0 0 0 0 0 0 0 -0 -0 -0 -0 -1 -1 -1 -1 -1 -1 -2 -2 -2
-8 -8 -8 -7 -7 -7 -6 -6 -6 -5 -5 -4 -4 -4 -3 -3 -2 -2 -2 -2 -1 -1 -1 -1 -1 -1 -1 -1 -1 -1 -1 -1 -1 -1 -1 -1 -1 -1 -2 -2 -2 -3 -3 -3
-8 -8 -8 -8 -7 -7 -7 -6 -6 -6 -6 -5 -5 -5 -4 -4 -3 -3 -3 -3 -2 -2 -2 -2 -2 -2 -1 -1 -1 -2 -2 -2 -2 -2 -2 -2 -2 -2 -3 -3 -3 -3 -4 -4

GEFSNGP_850_meantemp_144.txt.gz
Temperature
3 4 4 4 4 4 4 5 5 7 8 9 9 10 11 11 12 12 12 13 13 13 13 13 13 14 14 14 14 14 15 15 15 15 14 13 13 12 12 11 11 11 10 10
2 4 5 4 5 5 5 5 6 7 8 8 8 9 9 10 10 10 11 11 11 11 12 12 12 12 13 13 13 14 14 14 14 14 13 13 13 12 12 11 11 11 10 10
1 4 4 3 5 5 5 5 5 6 7 7 7 8 8 8 9 9 9 9 9 10 11 11 11 12 12 12 12 13 13 13 14 13 13 13 13 12 12 11 11 10 10 10
1 2 2 4 5 6 5 5 5 5 6 6 6 7 7 7 8 8 8 9 9 9 10 10 11 11 11 12 12 12 12 12 13 13 13 13 12 12 12 11 11 10 10 10
1 1 2 4 4 4 4 4 4 4 5 6 6 7 7 7 7 7 8 8 9 9 9 9 10 10 11 11 11 11 12 12 12 12 12 12 12 12 11 11 10 10 10 10
0 1 2 3 4 4 4 3 3 4 4 5 5 5 5 6 6 7 7 8 8 8 9 9 9 10 10 11 11 11 11 12 12 12 12 12 12 11 11 11 10 10 10 10
-0 0 2 3 4 4 3 2 3 3 4 4 4 4 5 5 6 6 7 7 8 8 8 8 9 9 10 10 10 11 11 11 11 11 12 12 11 11 10 10 10 9 9 9
-0 0 1 3 3 2 2 3 3 3 3 3 3 4 4 5 5 5 6 7 7 7 8 8 8 9 9 10 10 10 10 11 11 11 11 11 11 10 10 10 9 9 9 9
0 1 2 3 3 2 2 2 2 2 2 3 3 3 4 4 5 5 5 6 6 7 7 7 8 8 9 9 10 10 10 10 10 10 10 10 10 10 10 9 9 8 8 8
1 2 2 3 2 2 2 2 2 2 2 2 2 2 3 4 4 4 4 5 6 6 7 7 7 8 8 9 9 9 9 9 9 9 9 9 9 10 9 9 9 8 8 8
0 1 1 2 2 2 1 2 2 2 1 1 1 2 2 2 3 3 4 4 5 6 6 7 7 7 8 8 9 9 9 9 9 9 9 9 9 9 9 9 9 9 8 8
-0 1 0 1 1 1 1 1 1 1 1 1 1 1 1 2 2 3 3 3 4 5 6 6 6 7 7 8 8 8 8 8 8 8 8 8 8 8 8 8 8 7 7 7
1 1 1 1 1 1 0 0 0 0 0 0 1 1 1 1 2 2 2 3 4 4 5 5 6 6 7 7 7 8 8 8 8 8 8 7 7 8 7 7 7 7 7 7
0 0 -0 -0 -0 -0 -0 -0 -0 -0 -0 -0 -0 0 0 1 1 1 2 2 3 4 4 5 5 6 6 6 7 7 7 7 7 7 7 7 7 7 7 7 6 6 6 6
-1 -1 -1 -1 -1 -1 -1 -1 -1 -1 -1 -1 -0 -0 -0 -0 0 1 1 1 2 3 3 4 4 5 5 6 6 6 6 7 7 7 6 6 6 6 6 6 6 6 5 5
-2 -2 -2 -2 -2 -2 -2 -2 -2 -2 -1 -1 -1 -1 -1 -1 -0 -0 0 1 1 2 3 3 4 4 5 5 5 5 6 6 6 6 6 6 6 6 6 6 6 5 5 5
-3 -3 -3 -3 -3 -3 -3 -3 -3 -2 -2 -2 -2 -1 -1 -1 -1 -1 -0 0 1 1 2 2 3 3 4 4 4 5 5 5 5 5 6 6 6 5 5 5 5 5 4 4
-4 -4 -4 -4 -4 -4 -4 -4 -3 -3 -3 -3 -2 -2 -2 -2 -2 -1 -1 -1 -0 0 1 1 2 2 3 3 4 4 5 5 5 5 5 5 5 5 4 4 4 4 4 3
-5 -5 -5 -5 -5 -5 -5 -5 -4 -4 -3 -3 -3 -3 -2 -2 -2 -2 -2 -1 -1 -0 0 1 1 2 2 3 3 4 4 4 4 4 4 4 4 4 4 4 4 4 3 3
-6 -6 -6 -6 -6 -6 -6 -5 -5 -4 -4 -4 -3 -3 -3 -2 -2 -2 -2 -2 -1 -0 -0 0 1 1 2 3 3 3 4 4 4 4 3 3 3 3 3 3 3 3 3 2
-7 -7 -7 -6 -6 -6 -6 -6 -6 -5 -5 -4 -4 -3 -3 -3 -3 -2 -2 -2 -1 -1 -1 -0 1 1 2 2 3 3 3 3 3 3 3 3 3 3 3 3 3 2 2 2
-7 -7 -7 -7 -7 -7 -6 -6 -6 -5 -5 -4 -4 -4 -4 -3 -3 -3 -3 -2 -2 -2 -1 -0 1 1 2 2 2 2 3 3 3 3 3 3 2 2 2 2 2 2 1 1
-8 -8 -7 -7 -7 -7 -6 -6 -6 -5 -5 -5 -4 -4 -4 -4 -3 -3 -3 -3 -2 -2 -1 -0 0 1 1 2 2 2 2 2 2 2 2 2 2 2 2 1 1 1 1 0
-8 -8 -8 -8 -7 -7 -7 -6 -6 -6 -5 -5 -5 -5 -5 -4 -4 -4 -3 -3 -2 -2 -1 -0 0 1 1 1 1 1 2 2 2 2 2 2 1 1 1 1 1 0 0 -0
-9 -8 -8 -8 -8 -8 -7 -7 -7 -6 -6 -6 -5 -5 -5 -5 -4 -4 -4 -3 -3 -2 -1 -1 -0 -0 0 1 1 1 1 1 1 1 1 1 1 0 0 0 -0 -0 -1 -1
-9 -9 -9 -8 -8 -8 -8 -7 -7 -7 -6 -6 -6 -6 -5 -5 -5 -4 -4 -4 -3 -2 -2 -1 -1 -1 -1 -0 0 0 0 0 0 0 0 -0 -0 -0 -0 -1 -1 -1 -1 -1
-9 -9 -9 -9 -8 -8 -8 -7 -7 -7 -7 -7 -7 -6 -6 -5 -5 -5 -4 -4 -3 -3 -2 -2 -2 -1 -1 -1 -1 -0 -0 -1 -1 -1 -1 -1 -1 -1 -1 -1 -1 -1 -2 -2

GEFSNGP_850_meantemp_150.txt.gz
Temperature
-0 1 1 1 1 1 1 2 2 3 4 4 4 4 4 4 5 6 6 7 8 9 9 11 12 12 13 13 14 14 14 14 14 14 14 14 14 13 13 13 12 12 12 12
-0 1 1 2 2 2 2 2 2 3 3 4 4 4 3 4 4 4 5 6 7 8 9 9 10 11 12 13 13 13 13 14 14 14 14 13 13 13 13 12 12 12 12 11
-1 0 1 1 1 2 2 2 2 2 3 3 3 3 3 3 3 3 4 4 6 7 8 9 9 10 11 12 12 13 13 13 13 13 13 13 13 12 12 12 12 12 12 11
-1 -1 -1 1 1 2 2 1 1 2 2 2 3 3 3 3 3 3 3 4 5 6 7 8 9 10 11 11 12 12 12 13 13 13 13 12 12 12 12 12 12 12 11 11
-2 -2 -1 1 1 1 1 1 1 1 2 2 2 3 3 3 3 3 3 4 5 6 7 8 9 9 10 10 11 11 11 12 12 12 12 12 12 12 12 12 11 11 11 11
-2 -2 -1 0 1 2 1 0 1 1 1 1 1 1 2 2 2 2 3 4 5 6 7 7 8 9 9 9 10 10 11 11 11 11 11 11 12 12 11 11 11 11 11 11
-3 -2 -1 0 1 1 0 -0 0 1 1 1 1 1 2 2 2 3 3 4 4 5 6 7 7 8 8 9 9 10 10 10 10 10 11 11 11 11 11 11 10 10 10 10
-3 -3 -1 0 0 -0 -0 1 1 1 1 1 1 1 1 2 2 2 3 4 4 5 5 6 7 7 8 8 8 9 9 10 10 10 10 10 10 10 10 10 10 10 10 9
-3 -2 -1 0 0 1 1 0 0 0 1 1 1 1 1 1 1 2 3 3 4 4 5 6 6 6 7 7 8 8 8 9 9 9 9 9 9 10 9 9 9 9 9 9
-3 -2 -1 0 0 1 1 0 0 0 0 0 0 1 1 1 1 1 2 2 3 4 4 5 5 6 6 6 7 7 8 8 8 8 9 9 9 9 9 9 9 9 9 8
-3 -2 -2 -0 0 0 0 0 0 -0 -0 0 0 0 0 0 1 1 1 2 2 3 3 4 5 5 6 6 6 7 7 7 7 8 8 8 8 8 9 9 9 9 9 9
-3 -2 -2 -1 -0 -0 -0 -1 -1 -1 -0 -0 -0 -0 0 0 0 1 1 1 2 2 3 4 4 5 5 5 6 6 6 7 7 7 7 8 8 7 7 8 8 8 8 8
-1 -1 -1 -1 -1 -1 -1 -1 -1 -1 -1 -1 -1 -1 -1 -0 -0 0 0 1 1 2 2 3 4 4 5 5 5 6 6 6 7 7 7 7 7 7 7 7 7 7 7 7
-2 -2 -2 -2 -2 -2 -2 -2 -2 -2 -2 -2 -1 -1 -1 -1 -0 -0 0 0 1 1 2 2 3 4 5 5 5 5 6 6 6 7 7 7 6 6 7 6 6 6 6 6
-2 -3 -3 -3 -3 -3 -3 -3 -3 -3 -2 -2 -2 -2 -2 -2 -1 -1 -0 -0 0 1 1 2 3 4 4 4 4 5 5 5 6 6 6 6 6 6 6 6 6 6 6 6
-3 -3 -3 -3 -4 -4 -4 -4 -4 -4 -3 -3 -3 -3 -3 -2 -2 -2 -1 -1 -0 0 1 1 2 3 3 4 4 4 4 5 5 5 5 5 5 5 5 5 5 5 5 5
-4 -4 -4 -4 -4 -4 -5 -5 -5 -4 -4 -4 -4 -4 -3 -3 -3 -2 -2 -1 -1 -1 0 1 2 2 3 3 3 3 4 4 4 4 4 4 4 5 5 5 5 5 5 5
-5 -5 -5 -5 -5 -5 -5 -5 -5 -5 -5 -5 -4 -4 -4 -4 -3 -3 -2 -2 -1 -1 -1 0 1 1 2 2 2 3 3 3 3 3 3 4 4 4 4 4 4 4 4 4
-6 -6 -6 -6 -6 -6 -6 -6 -6 -6 -6 -5 -5 -5 -5 -4 -4 -3 -3 -3 -2 -2 -1 -0 0 1 1 2 2 2 2 2 2 3 3 3 3 3 3 4 4 4 4 4
-6 -7 -7 -6 -6 -7 -7 -6 -6 -6 -6 -6 -6 -5 -5 -4 -4 -4 -3 -3 -3 -2 -1 -1 -0 0 1 1 1 2 2 2 2 2 2 2 2 3 3 3 3 3 3 3
-7 -7 -7 -7 -7 -7 -7 -7 -7 -7 -6 -6 -6 -6 -5 -5 -4 -4 -4 -3 -3 -2 -2 -1 -1 -1 -0 0 0 1 1 1 1 1 2 2 2 2 3 3 3 3 3 3
-8 -8 -8 -8 -8 -7 -7 -7 -7 -7 -7 -7 -6 -6 -5 -5 -5 -4 -4 -4 -3 -3 -2 -2 -2 -1 -1 -1 -0 0 0 0 1 1 1 1 1 2 2 2 2 2 2 2
-8 -8 -8 -8 -8 -8 -8 -8 -8 -8 -7 -7 -6 -6 -6 -5 -5 -5 -4 -4 -4 -3 -3 -2 -2 -2 -1 -1 -1 -1 -0 -0 0 0 1 1 1 1 2 2 2 2 2 2
-9 -9 -9 -9 -9 -9 -8 -8 -8 -8 -7 -7 -7 -6 -6 -6 -5 -5 -5 -4 -4 -4 -3 -3 -2 -2 -2 -1 -1 -1 -1 -1 -0 0 0 1 1 1 1 1 1 1 1 1
-9 -9 -9 -9 -9 -9 -9 -9 -8 -8 -7 -7 -7 -6 -6 -6 -6 -5 -5 -5 -4 -4 -4 -3 -3 -2 -2 -2 -2 -1 -1 -1 -1 -0 -0 0 0 1 1 1 1 1 1 1
-10 -10 -10 -10 -9 -9 -9 -9 -9 -8 -8 -8 -7 -7 -7 -6 -6 -6 -5 -5 -5 -4 -4 -3 -3 -3 -2 -2 -2 -1 -1 -1 -1 -1 -1 -0 -0 -0 0 0 0 0 0 -0
-10 -10 -10 -10 -9 -9 -10 -9 -9 -9 -8 -8 -8 -7 -7 -7 -6 -6 -6 -5 -5 -5 -4 -4 -3 -3 -3 -2 -2 -2 -2 -1 -1 -1 -1 -1 -1 -1 -0 -0 -0 -0 -1 -1

GEFSNGP_850_meantemp_156.txt.gz
Temperature
-2 -1 -1 -1 -1 -0 -1 -0 -0 0 1 1 2 2 2 2 2 2 2 2 3 4 4 6 7 8 10 10 11 12 13 13 14 14 14 13 13 13 13 13 13 13 12 12
-2 -1 -0 -0 0 0 0 -0 -0 0 1 1 1 1 1 1 2 2 2 2 2 3 4 5 6 7 9 10 11 11 12 13 13 13 13 13 13 12 12 12 12 12 12 12
-2 -1 -1 -1 -0 -0 -0 -0 -1 -0 0 0 0 1 1 1 1 1 1 1 2 2 3 4 5 6 8 9 10 10 11 12 12 12 12 13 13 12 12 12 12 12 12 12
-3 -3 -3 -1 -0 -0 -0 -1 -1 -0 -0 -0 0 1 1 1 1 1 1 1 1 2 3 4 5 6 7 8 9 10 11 11 11 12 12 12 12 12 12 12 11 11 11 11
-3 -3 -3 -1 -0 -1 -1 -1 -1 -1 -0 -0 0 1 1 1 1 1 1 1 1 2 3 4 5 6 7 7 8 9 10 10 11 11 11 12 12 12 11 11 11 11 11 11
-4 -3 -2 -1 0 0 -1 -1 -1 -1 -1 -1 -1 -1 0 1 1 1 1 1 2 2 3 4 5 5 6 7 8 8 9 9 10 10 11 11 11 11 11 11 11 11 10 11
-4 -4 -3 -1 -0 -0 -2 -2 -0 -0 -1 -1 -1 -1 0 0 1 1 1 1 2 2 3 3 4 5 5 6 7 8 8 9 9 10 10 10 11 11 11 11 10 10 10 10
-5 -4 -3 -1 -1 -1 -2 -0 -0 -0 -0 -1 -0 -0 -0 -0 0 0 1 1 1 2 3 3 4 4 5 6 6 7 7 8 8 9 9 9 9 10 10 10 10 9 9 10
-4 -3 -2 -1 -1 -0 0 -0 -0 -0 -0 -0 -1 -1 -1 -1 -0 -0 0 1 1 1 2 3 3 4 4 5 6 6 7 7 8 8 8 9 9 9 9 9 9 9 9 9
-5 -4 -3 -1 -0 -0 -0 -0 -0 -1 -1 -1 -1 -1 -1 -1 -1 -0 0 0 1 1 2 3 3 3 4 4 5 5 6 6 7 7 7 8 8 8 8 8 8 8 9 9
-5 -4 -3 -2 -1 -0 -1 -1 -1 -1 -1 -1 -1 -1 -1 -1 -1 -1 -0 -0 0 0 1 2 3 3 3 4 4 5 5 6 6 6 7 7 7 8 8 8 9 9 9 9
-4 -3 -3 -3 -1 -1 -1 -2 -2 -2 -2 -2 -2 -2 -2 -2 -1 -1 -1 -1 -0 0 1 1 2 3 3 3 4 4 4 5 5 5 6 6 7 7 7 8 8 8 8 8
-2 -2 -2 -2 -2 -2 -2 -2 -2 -2 -2 -2 -2 -2 -2 -2 -2 -2 -1 -1 -1 -0 0 1 1 2 3 3 3 3 4 4 4 5 5 5 6 6 6 7 7 7 7 8
-2 -3 -3 -3 -3 -3 -3 -3 -3 -3 -3 -3 -3 -3 -3 -3 -2 -2 -2 -2 -1 -1 -0 0 1 1 2 3 3 3 3 4 4 4 4 5 5 5 6 6 6 6 6 7
-3 -3 -3 -3 -3 -3 -4 -4 -4 -4 -4 -3 -3 -3 -3 -3 -3 -3 -2 -2 -2 -2 -1 -0 0 1 2 2 3 3 3 3 4 4 4 4 4 5 5 5 5 6 6 6
-4 -4 -4 -4 -4 -4 -4 -4 -5 -5 -4 -4 -4 -4 -4 -4 -4 -4 -3 -3 -3 -2 -2 -1 -0 0 1 1 2 2 2 3 3 3 4 4 4 4 4 5 5 5 5 5
-5 -5 -5 -5 -5 -5 -5 -5 -5 -5 -5 -5 -5 -5 -5 -5 -4 -4 -4 -4 -3 -3 -2 -2 -1 -0 0 1 1 2 2 2 3 3 3 4 4 4 4 4 4 4 4 5
-5 -5 -6 -6 -6 -6 -6 -6 -6 -6 -6 -6 -6 -5 -5 -5 -5 -5 -4 -4 -4 -3 -3 -2 -2 -1 -0 0 1 1 2 2 2 3 3 3 3 3 3 4 4 4 4 4
-6 -6 -6 -6 -6 -6 -6 -6 -6 -6 -6 -6 -6 -6 -6 -6 -5 -5 -5 -5 -4 -4 -3 -3 -2 -2 -1 -0 0 1 1 2 2 2 3 3 2 2 3 3 3 3 3 4
-6 -6 -6 -6 -6 -7 -7 -7 -7 -7 -7 -7 -7 -7 -6 -6 -6 -5 -5 -5 -4 -4 -4 -3 -3 -2 -2 -1 -0 0 1 1 1 2 2 2 2 2 2 2 3 3 3 3
-6 -7 -7 -7 -7 -7 -7 -7 -7 -7 -7 -7 -7 -7 -7 -6 -6 -6 -5 -5 -4 -4 -4 -3 -3 -3 -2 -1 -1 -0 0 1 1 1 1 1 1 1 2 2 2 2 2 2
-7 -7 -7 -7 -8 -7 -7 -7 -7 -7 -7 -7 -8 -7 -7 -7 -6 -6 -5 -5 -5 -4 -4 -4 -3 -3 -2 -2 -1 -1 -1 -0 0 1 1 1 1 1 1 1 1 1 2 2
-8 -8 -8 -8 -8 -8 -8 -8 -8 -8 -8 -8 -8 -8 -7 -7 -7 -6 -6 -5 -5 -5 -4 -4 -4 -3 -3 -2 -2 -1 -1 -1 -0 -0 0 0 0 1 1 1 1 1 1 1
-8 -8 -9 -9 -9 -9 -8 -8 -8 -8 -8 -8 -8 -8 -7 -7 -7 -6 -6 -6 -5 -5 -4 -4 -4 -3 -3 -3 -2 -2 -2 -1 -1 -1 -1 -0 -0 0 0 0 1 1 1 1
-9 -9 -9 -9 -9 -9 -9 -9 -9 -8 -8 -8 -8 -7 -7 -7 -7 -6 -6 -6 -5 -5 -5 -4 -4 -4 -3 -3 -2 -2 -2 -2 -1 -1 -1 -1 -1 -0 -0 -0 0 0 0 1
-9 -9 -9 -10 -10 -10 -10 -10 -9 -9 -9 -9 -8 -8 -7 -7 -7 -7 -6 -6 -6 -5 -5 -4 -4 -4 -4 -3 -3 -3 -2 -2 -2 -2 -1 -1 -1 -1 -1 -1 -0 -0 0 0
-10 -10 -10 -10 -10 -10 -10 -10 -10 -10 -10 -9 -9 -8 -8 -7 -7 -7 -7 -6 -6 -6 -5 -5 -5 -4 -4 -4 -3 -3 -3 -2 -2 -2 -2 -2 -1 -1 -1 -1 -1 -0 -0 -0

GEFSNGP_850_meantemp_162.txt.gz
Temperature
2 2 2 1 1 1 1 1 2 3 3 4 3 3 3 2 2 2 2 2 2 2 2 2 3 4 5 6 7 8 9 9 10 10 11 11 11 11 11 11 12 12 11 11
1 2 2 2 2 2 2 2 2 2 3 3 3 3 2 2 2 2 2 1 1 1 1 2 2 3 4 6 7 7 8 9 9 10 10 11 11 11 11 11 11 11 11 11
1 2 1 1 2 2 2 2 2 2 3 3 3 3 2 2 1 1 1 1 1 1 1 1 2 3 4 5 6 7 7 8 9 9 10 11 11 11 11 11 11 11 11 11
0 1 -0 3 3 2 2 2 2 2 2 3 2 2 2 1 1 1 1 1 0 0 1 1 2 2 3 4 5 6 7 7 8 9 9 10 10 10 11 11 11 11 11 11
-0 0 1 3 3 2 1 1 2 2 2 2 2 2 2 2 1 1 0 0 0 0 1 1 2 2 3 4 5 6 6 7 8 8 9 9 10 10 10 10 10 10 10 10
-1 -1 0 3 3 2 1 1 2 2 2 2 1 2 3 1 0 0 0 -0 0 0 1 1 2 2 3 4 4 5 6 7 7 8 8 9 9 10 10 10 10 10 10 10
-1 -1 1 3 2 1 1 2 2 1 1 1 1 1 1 -0 -0 -0 -0 -0 -0 0 0 1 1 2 2 3 4 4 5 6 7 8 8 9 9 9 9 9 9 9 10 10
-1 -1 0 2 1 1 2 2 1 1 1 0 0 -0 -0 -1 -1 -1 -1 -1 -0 -0 0 1 1 1 2 3 4 4 5 6 6 7 8 8 9 9 9 9 9 9 9 9
0 1 3 1 1 1 0 0 0 0 -0 -0 -1 -1 -1 -1 -1 -1 -1 -1 -1 -0 0 1 1 1 2 2 3 4 4 5 6 7 7 8 8 8 8 8 9 9 9 9
-1 1 1 0 0 -0 -0 -0 -1 -1 -1 -1 -1 -1 -1 -1 -1 -1 -1 -1 -1 -1 -0 0 1 1 2 2 3 3 4 4 5 6 6 7 7 8 8 8 8 8 8 8
-1 1 1 0 -0 -0 -1 -1 -1 -2 -2 -2 -2 -2 -2 -2 -2 -2 -2 -1 -1 -1 -1 -0 0 1 2 2 3 3 3 4 4 5 6 6 7 7 7 8 8 8 9 9
0 1 0 1 -0 -1 -1 -2 -2 -2 -2 -2 -3 -3 -2 -2 -2 -2 -2 -2 -2 -2 -1 -1 -0 1 1 2 2 2 3 3 4 4 5 5 6 6 7 7 8 8 8 8
-0 -0 -1 -1 -1 -2 -2 -2 -3 -3 -3 -3 -3 -3 -3 -3 -3 -3 -3 -3 -2 -2 -2 -1 -1 -0 1 1 2 2 2 3 3 4 4 5 5 5 6 6 7 7 7 7
-2 -2 -2 -2 -2 -3 -3 -3 -3 -3 -3 -3 -4 -4 -4 -4 -3 -3 -3 -3 -3 -3 -2 -2 -1 -1 0 0 1 2 2 3 3 3 3 4 4 5 5 5 6 6 6 7
-3 -3 -3 -3 -3 -3 -4 -4 -4 -4 -4 -4 -4 -4 -4 -4 -4 -4 -4 -3 -3 -3 -3 -2 -2 -1 -1 -0 0 1 1 2 3 3 3 3 4 4 4 5 5 5 5 6
-3 -3 -4 -4 -4 -4 -4 -5 -5 -5 -5 -5 -5 -5 -5 -4 -4 -4 -4 -4 -4 -4 -3 -3 -2 -2 -2 -1 -0 0 1 1 2 2 2 3 3 4 4 4 4 4 5 5
-4 -4 -5 -5 -5 -5 -5 -5 -5 -5 -5 -5 -5 -5 -5 -5 -5 -4 -4 -4 -4 -4 -4 -3 -3 -3 -2 -2 -1 -1 -0 1 1 1 2 2 3 3 3 4 4 4 4 4
-4 -4 -5 -5 -5 -5 -6 -6 -6 -6 -6 -6 -6 -6 -6 -6 -5 -5 -5 -5 -4 -4 -4 -4 -3 -3 -3 -2 -2 -1 -1 -0 1 1 1 2 2 3 3 3 3 3 4 4
-5 -5 -5 -6 -6 -6 -6 -6 -6 -6 -6 -6 -6 -6 -6 -6 -6 -6 -5 -5 -5 -4 -4 -4 -4 -4 -3 -3 -2 -2 -1 -1 -0 0 1 1 2 2 2 2 2 3 3 3
-6 -6 -6 -6 -6 -6 -7 -7 -7 -7 -7 -7 -7 -7 -6 -6 -6 -6 -6 -6 -5 -5 -5 -4 -4 -4 -3 -3 -3 -2 -2 -1 -1 -0 0 0 1 1 2 2 2 2 2 3
-6 -6 -6 -7 -7 -7 -7 -7 -7 -7 -7 -7 -7 -7 -7 -7 -7 -7 -7 -6 -5 -5 -5 -5 -4 -4 -4 -3 -3 -2 -2 -2 -1 -1 -0 -0 0 0 1 1 2 2 2 2
-7 -7 -7 -7 -7 -7 -7 -7 -7 -7 -7 -7 -7 -7 -7 -7 -7 -7 -7 -6 -6 -5 -5 -5 -5 -4 -4 -4 -3 -3 -2 -2 -2 -1 -1 -0 -0 0 0 1 1 1 1 1
-7 -7 -7 -7 -8 -8 -8 -8 -8 -8 -8 -8 -8 -8 -8 -8 -8 -7 -7 -6 -6 -6 -6 -5 -5 -4 -4 -4 -4 -3 -3 -2 -2 -1 -1 -1 -1 -0 -0 0 0 1 1 1
-7 -8 -8 -8 -8 -8 -8 -8 -8 -8 -8 -8 -8 -8 -8 -8 -8 -7 -7 -7 -6 -6 -6 -5 -5 -5 -4 -4 -4 -3 -3 -3 -2 -2 -1 -1 -1 -1 -1 -0 -0 0 0 1
-8 -8 -8 -9 -9 -9 -9 -9 -9 -9 -9 -9 -8 -8 -8 -8 -8 -7 -7 -7 -7 -6 -6 -6 -5 -5 -5 -4 -4 -4 -3 -3 -2 -2 -2 -1 -1 -1 -1 -1 -0 -0 -0 0
-9 -9 -9 -9 -9 -9 -9 -9 -9 -9 -9 -9 -9 -9 -8 -8 -8 -8 -7 -7 -7 -7 -6 -6 -6 -5 -5 -4 -4 -4 -3 -3 -3 -2 -2 -2 -2 -2 -2 -1 -1 -1 -1 -0
-9 -9 -9 -10 -10 -10 -10 -10 -10 -10 -10 -10 -9 -9 -9 -9 -8 -8 -8 -7 -7 -7 -7 -6 -6 -5 -5 -5 -4 -4 -4 -3 -3 -3 -2 -2 -2 -2 -2 -1 -1 -1 -1 -1

GEFSNGP_850_meantemp_168.txt.gz
Temperature
2 3 3 2 2 2 1 1 0 1 2 3 3 3 3 4 3 3 3 2 2 2 2 2 2 2 3 4 5 5 6 7 7 8 8 9 9 10 10 10 11 11 11 11
1 3 3 3 3 2 2 2 2 2 2 4 4 4 3 3 3 3 2 2 2 2 1 1 1 2 2 3 4 5 5 6 6 7 8 8 9 9 10 10 10 10 10 11
0 2 2 1 2 3 2 3 2 2 2 3 3 3 3 3 3 2 2 2 2 1 1 1 1 1 2 2 4 4 5 5 6 6 7 8 8 9 9 9 10 10 10 10
-0 0 -1 2 4 4 3 3 3 3 3 3 3 3 3 3 2 2 2 1 1 1 1 1 1 1 2 2 3 4 4 5 5 6 7 7 8 8 9 9 9 10 10 10
-1 -1 0 2 4 3 2 1 2 2 2 3 3 3 3 3 2 2 1 1 1 1 1 1 1 1 2 2 3 3 4 4 5 5 6 7 7 8 8 9 9 9 10 10
-1 -1 -0 2 4 3 2 -0 2 2 2 2 2 -0 1 2 2 1 1 1 0 1 1 1 1 1 1 2 2 3 3 4 5 5 6 6 7 7 8 8 8 9 9 9
-1 -1 0 3 3 3 -0 -0 3 3 2 2 1 1 2 1 1 1 0 0 0 0 0 0 0 1 1 1 2 2 3 4 4 5 5 6 6 7 7 8 8 8 8 9
-1 -1 -0 3 2 1 1 3 3 2 2 2 2 1 1 1 1 0 0 -0 -0 -0 0 0 0 0 1 1 1 2 3 3 4 4 5 6 6 7 7 7 8 8 8 8
-0 0 2 4 3 3 3 2 2 2 2 1 1 1 0 0 0 -0 -0 -0 -0 -0 -0 -0 -0 -0 0 1 1 2 2 3 3 4 5 5 6 6 7 7 7 7 8 8
-0 1 2 3 3 3 2 2 2 1 1 1 0 0 -0 -0 -1 -1 -1 -1 -1 -1 -1 -1 -0 -0 -0 0 1 1 2 2 3 3 4 5 5 6 6 6 7 7 7 7
-1 0 1 2 2 2 2 1 1 1 0 0 -0 -1 -1 -1 -1 -1 -1 -1 -1 -1 -1 -1 -1 -1 -0 -0 0 1 1 2 2 3 3 4 5 5 6 6 7 7 7 7
-0 1 0 1 2 2 1 1 0 -0 -0 -1 -1 -1 -1 -1 -1 -2 -2 -2 -2 -2 -2 -1 -1 -1 -1 -1 -0 0 1 1 2 2 3 3 4 5 5 6 6 7 7 7
2 2 1 1 1 1 0 -0 -1 -1 -1 -1 -1 -2 -2 -2 -2 -2 -2 -2 -2 -2 -2 -2 -2 -1 -1 -1 -1 -0 0 1 1 2 2 3 3 4 4 5 6 6 7 7
1 1 1 0 -0 -0 -1 -1 -1 -2 -2 -2 -2 -2 -3 -3 -3 -3 -3 -3 -3 -3 -3 -3 -2 -2 -2 -1 -1 -0 -0 0 1 1 2 2 3 3 4 4 5 6 6 6
0 0 -0 -0 -1 -1 -1 -2 -2 -2 -2 -3 -3 -3 -3 -3 -3 -3 -3 -3 -3 -3 -3 -3 -3 -2 -2 -2 -1 -1 -0 -0 0 1 1 2 2 3 3 4 4 5 5 5
-1 -1 -1 -1 -2 -2 -2 -3 -3 -3 -3 -4 -4 -4 -4 -4 -4 -4 -4 -4 -4 -4 -4 -4 -3 -3 -3 -2 -2 -2 -1 -0 -0 0 1 1 2 2 3 3 3 4 4 5
-1 -2 -2 -2 -3 -3 -3 -3 -4 -4 -4 -4 -5 -5 -5 -5 -5 -5 -5 -5 -5 -4 -4 -4 -4 -3 -3 -3 -3 -2 -2 -1 -1 -0 0 1 1 2 2 2 3 3 4 4
-2 -2 -3 -3 -3 -4 -4 -4 -4 -5 -5 -5 -5 -5 -5 -5 -5 -5 -5 -5 -5 -5 -4 -4 -4 -4 -3 -3 -3 -3 -2 -2 -1 -1 -0 0 1 1 2 2 2 3 3 3
-3 -3 -3 -4 -4 -4 -5 -5 -5 -5 -5 -6 -6 -6 -6 -6 -6 -6 -6 -5 -5 -5 -5 -5 -4 -4 -4 -3 -3 -3 -3 -2 -2 -1 -1 -0 0 1 1 2 2 2 2 3
-4 -4 -4 -5 -5 -5 -5 -5 -6 -6 -6 -6 -6 -6 -6 -6 -6 -6 -6 -6 -6 -6 -5 -5 -5 -4 -4 -4 -4 -3 -3 -3 -2 -2 -1 -1 -0 0 1 1 2 2 2 2
-5 -5 -5 -6 -6 -6 -6 -6 -6 -6 -7 -7 -7 -7 -7 -7 -7 -7 -7 -6 -6 -6 -6 -5 -5 -5 -5 -4 -4 -4 -3 -3 -3 -2 -2 -1 -1 -0 0 1 1 1 1 2
-6 -6 -6 -6 -6 -7 -7 -7 -7 -7 -7 -7 -7 -7 -7 -7 -7 -7 -7 -7 -6 -6 -6 -6 -5 -5 -5 -5 -5 -4 -4 -3 -3 -2 -2 -2 -1 -1 -1 -0 0 1 1 1
-6 -6 -6 -7 -7 -7 -7 -7 -7 -7 -7 -7 -7 -8 -8 -8 -8 -8 -7 -7 -7 -7 -7 -6 -6 -6 -5 -5 -5 -4 -4 -4 -3 -3 -2 -2 -2 -1 -1 -1 -0 0 0 1
-6 -7 -7 -7 -7 -7 -7 -7 -7 -8 -8 -8 -8 -8 -8 -8 -8 -8 -8 -7 -7 -7 -7 -6 -6 -6 -5 -5 -5 -5 -4 -4 -3 -3 -3 -2 -2 -2 -1 -1 -1 -1 -0 0
-7 -7 -7 -7 -7 -8 -8 -8 -8 -8 -8 -8 -8 -8 -8 -8 -8 -8 -8 -8 -8 -8 -7 -7 -6 -6 -6 -5 -5 -5 -5 -4 -4 -4 -3 -3 -2 -2 -2 -1 -1 -1 -1 -0
-7 -8 -8 -8 -8 -8 -8 -8 -9 -9 -9 -9 -9 -9 -9 -9 -9 -9 -8 -8 -8 -8 -7 -7 -6 -6 -6 -5 -5 -5 -5 -4 -4 -4 -4 -3 -3 -2 -2 -2 -2 -1 -1 -1
-8 -8 -8 -8 -8 -9 -9 -9 -9 -9 -9 -9 -9 -9 -9 -9 -9 -9 -9 -8 -8 -8 -8 -7 -7 -7 -6 -6 -6 -5 -5 -5 -5 -4 -4 -4 -3 -3 -3 -2 -2 -2 -1 -1